AET77UK VTSM-VTSP

Flight info

Callsign AET77UK
Flight time 0h 40m
Altitude 16000
Route DORNA1A DORNA W32 SAPUD Y8 SAVSA SAVSA1D
Aircraft BE20/M-SDFGRWY/LB1

Departure

Time 2026-04-14 10:26
Airport Samui International Airport (VTSM)

Arrival

Time 2026-04-14 11:07
Airport Phuket International Airport (VTSP)
Time Latitude Longitude Altitude Speed Heading
2026-04-14 10:06 9.55320 100.06068 48 ft 0 kts 264°
2026-04-14 10:20 9.55312 100.06066 48 ft 4 kts 129°
2026-04-14 10:21 9.55330 100.06105 48 ft 7 kts 27°
2026-04-14 10:21 9.55390 100.06102 48 ft 5 kts 23°
2026-04-14 10:21 9.55404 100.06144 48 ft 10 kts 87°
2026-04-14 10:21 9.55465 100.06175 48 ft 17 kts 346°
2026-04-14 10:22 9.55576 100.06158 48 ft 14 kts 352°
2026-04-14 10:22 9.55669 100.06137 48 ft 15 kts 348°
2026-04-14 10:22 9.55670 100.06161 48 ft 2 kts 175°
2026-04-14 10:22 9.55669 100.06161 48 ft 0 kts 174°
2026-04-14 10:25 9.55618 100.06166 48 ft 30 kts 174°
2026-04-14 10:25 9.55196 100.06209 49 ft 89 kts 174°
2026-04-14 10:26 9.54466 100.06280 222 ft 117 kts 173°
2026-04-14 10:26 9.53586 100.06368 448 ft 140 kts 168°
2026-04-14 10:26 9.52606 100.06676 802 ft 148 kts 157°
2026-04-14 10:26 9.51576 100.07078 787 ft 183 kts 159°
2026-04-14 10:27 9.50403 100.07520 1218 ft 176 kts 158°
2026-04-14 10:27 9.49301 100.07933 1923 ft 151 kts 158°
2026-04-14 10:27 9.48306 100.08335 2376 ft 163 kts 154°
2026-04-14 10:27 9.47264 100.08755 2891 ft 161 kts 168°
2026-04-14 10:28 9.46182 100.08508 3375 ft 167 kts 216°
2026-04-14 10:28 9.45545 100.07538 3870 ft 169 kts 247°
2026-04-14 10:28 9.45129 100.06419 4388 ft 170 kts 249°
2026-04-14 10:28 9.44728 100.05284 4871 ft 174 kts 249°
2026-04-14 10:29 9.44314 100.04126 5384 ft 174 kts 249°
2026-04-14 10:29 9.43899 100.02982 5857 ft 176 kts 248°
2026-04-14 10:29 9.43635 100.02262 6147 ft 178 kts 248°
2026-04-14 10:29 9.43197 100.01079 6618 ft 180 kts 248°
2026-04-14 10:30 9.42758 99.99893 7104 ft 180 kts 248°
2026-04-14 10:30 9.42316 99.98702 7602 ft 181 kts 249°
2026-04-14 10:30 9.41871 99.97505 8103 ft 181 kts 249°
2026-04-14 10:30 9.41426 99.96309 8608 ft 182 kts 249°
2026-04-14 10:31 9.40975 99.95097 9077 ft 185 kts 249°
2026-04-14 10:31 9.40525 99.93887 9579 ft 186 kts 249°
2026-04-14 10:31 9.40132 99.92643 10064 ft 186 kts 261°
2026-04-14 10:31 9.40145 99.91327 10503 ft 187 kts 278°
2026-04-14 10:32 9.40295 99.90011 10939 ft 190 kts 276°
2026-04-14 10:32 9.40423 99.88674 11415 ft 191 kts 276°
2026-04-14 10:32 9.40508 99.87788 11734 ft 192 kts 276°
2026-04-14 10:32 9.40687 99.85989 12400 ft 192 kts 276°
2026-04-14 10:33 9.40825 99.84640 12837 ft 193 kts 276°
2026-04-14 10:33 9.40918 99.83747 13137 ft 192 kts 276°
2026-04-14 10:33 9.41058 99.82402 13545 ft 193 kts 276°
2026-04-14 10:33 9.41199 99.81045 13906 ft 194 kts 276°
2026-04-14 10:34 9.41480 99.78346 14662 ft 193 kts 276°
2026-04-14 10:34 9.41480 99.76988 15019 ft 193 kts 257°
2026-04-14 10:34 9.41021 99.75724 15385 ft 192 kts 245°
2026-04-14 10:35 9.40469 99.74491 15741 ft 193 kts 244°
2026-04-14 10:35 9.39885 99.73195 15805 ft 211 kts 245°
2026-04-14 10:35 9.39256 99.71796 15823 ft 225 kts 245°
2026-04-14 10:35 9.38593 99.70319 15829 ft 235 kts 245°
2026-04-14 10:36 9.37909 99.68794 15824 ft 241 kts 245°
2026-04-14 10:36 9.37218 99.67253 15817 ft 246 kts 245°
2026-04-14 10:36 9.36505 99.65667 15819 ft 249 kts 245°
2026-04-14 10:36 9.35786 99.64066 15819 ft 250 kts 245°
2026-04-14 10:37 9.35063 99.62458 15820 ft 251 kts 245°
2026-04-14 10:37 9.34339 99.60853 15821 ft 250 kts 245°
2026-04-14 10:37 9.33617 99.59251 15821 ft 250 kts 245°
2026-04-14 10:37 9.32894 99.57648 15821 ft 250 kts 244°
2026-04-14 10:38 9.32170 99.56042 15823 ft 251 kts 244°
2026-04-14 10:38 9.31442 99.54429 15822 ft 251 kts 244°
2026-04-14 10:38 9.30715 99.52817 15819 ft 252 kts 244°
2026-04-14 10:38 9.29988 99.51203 15819 ft 252 kts 244°
2026-04-14 10:39 9.29267 99.49606 15818 ft 252 kts 244°
2026-04-14 10:39 9.28540 99.47991 15819 ft 251 kts 245°
2026-04-14 10:39 9.27815 99.46381 15816 ft 252 kts 244°
2026-04-14 10:39 9.27086 99.44767 15817 ft 252 kts 244°
2026-04-14 10:40 9.26356 99.43150 15816 ft 253 kts 244°
2026-04-14 10:40 9.25624 99.41528 15817 ft 253 kts 244°
2026-04-14 10:40 9.24893 99.39907 15817 ft 253 kts 244°
2026-04-14 10:40 9.24162 99.38288 15808 ft 253 kts 244°
2026-04-14 10:41 9.23432 99.36668 15808 ft 252 kts 244°
2026-04-14 10:41 9.22702 99.35052 15806 ft 252 kts 244°
2026-04-14 10:41 9.21971 99.33433 15805 ft 253 kts 244°
2026-04-14 10:41 9.21240 99.31814 15807 ft 253 kts 244°
2026-04-14 10:42 9.20507 99.30193 15807 ft 254 kts 244°
2026-04-14 10:42 9.19774 99.28568 15808 ft 254 kts 244°
2026-04-14 10:42 9.19051 99.26969 15805 ft 253 kts 244°
2026-04-14 10:42 9.18318 99.25346 15809 ft 253 kts 245°
2026-04-14 10:43 9.17587 99.23727 15804 ft 252 kts 244°
2026-04-14 10:43 9.16860 99.22117 15804 ft 252 kts 244°
2026-04-14 10:43 9.16126 99.20496 15806 ft 252 kts 244°
2026-04-14 10:43 9.15395 99.18879 15809 ft 253 kts 244°
2026-04-14 10:44 9.14664 99.17261 15803 ft 253 kts 244°
2026-04-14 10:44 9.13929 99.15637 15804 ft 254 kts 244°
2026-04-14 10:44 9.13140 99.14049 15800 ft 252 kts 235°
2026-04-14 10:44 9.12008 99.12709 15802 ft 250 kts 219°
2026-04-14 10:45 9.10669 99.11610 15799 ft 248 kts 217°
2026-04-14 10:45 9.09326 99.10512 15799 ft 249 kts 216°
2026-04-14 10:45 9.07985 99.09411 15800 ft 248 kts 217°
2026-04-14 10:45 9.06643 99.08308 15802 ft 249 kts 216°
2026-04-14 10:46 9.05286 99.07195 15732 ft 253 kts 217°
2026-04-14 10:46 9.03910 99.06067 15620 ft 256 kts 218°
2026-04-14 10:46 9.02537 99.04941 15499 ft 259 kts 218°
2026-04-14 10:46 9.01135 99.03791 15380 ft 260 kts 217°
2026-04-14 10:47 8.99731 99.02639 15263 ft 260 kts 217°
2026-04-14 10:47 8.98321 99.01483 15144 ft 261 kts 217°
2026-04-14 10:47 8.96916 99.00332 15030 ft 260 kts 217°
2026-04-14 10:47 8.95511 98.99180 14917 ft 260 kts 217°
2026-04-14 10:48 8.94104 98.98028 14800 ft 260 kts 217°
2026-04-14 10:48 8.92698 98.96877 14686 ft 260 kts 217°
2026-04-14 10:48 8.91294 98.95728 14574 ft 259 kts 217°
2026-04-14 10:48 8.89892 98.94581 14456 ft 259 kts 217°
2026-04-14 10:49 8.88489 98.93433 14353 ft 259 kts 217°
2026-04-14 10:49 8.87089 98.92287 14236 ft 259 kts 217°
2026-04-14 10:49 8.85689 98.91143 14125 ft 258 kts 217°
2026-04-14 10:49 8.84293 98.90001 14017 ft 258 kts 217°
2026-04-14 10:50 8.82915 98.88873 13906 ft 258 kts 217°
2026-04-14 10:50 8.81517 98.87730 13801 ft 258 kts 217°
2026-04-14 10:50 8.80119 98.86586 13684 ft 259 kts 217°
2026-04-14 10:50 8.78715 98.85441 13507 ft 260 kts 217°
2026-04-14 10:51 8.77298 98.84288 13307 ft 262 kts 217°
2026-04-14 10:51 8.75874 98.83129 13107 ft 263 kts 217°
2026-04-14 10:51 8.74447 98.81968 12902 ft 264 kts 217°
2026-04-14 10:51 8.73014 98.80802 12702 ft 264 kts 217°
2026-04-14 10:52 8.71579 98.79634 12492 ft 266 kts 217°
2026-04-14 10:52 8.70124 98.78451 12276 ft 269 kts 217°
2026-04-14 10:52 8.68662 98.77262 12054 ft 271 kts 217°
2026-04-14 10:52 8.67190 98.76065 11837 ft 273 kts 217°
2026-04-14 10:53 8.65703 98.74855 11624 ft 275 kts 217°
2026-04-14 10:53 8.64212 98.73641 11413 ft 276 kts 217°
2026-04-14 10:53 8.62719 98.72427 11198 ft 275 kts 217°
2026-04-14 10:53 8.61226 98.71213 10982 ft 275 kts 217°
2026-04-14 10:54 8.59739 98.70003 10768 ft 274 kts 217°
2026-04-14 10:54 8.58257 98.68802 10563 ft 273 kts 217°
2026-04-14 10:54 8.56780 98.67600 10352 ft 272 kts 217°
2026-04-14 10:54 8.55305 98.66401 10136 ft 272 kts 217°
2026-04-14 10:55 8.53834 98.65204 9944 ft 270 kts 217°
2026-04-14 10:55 8.52398 98.64036 9838 ft 267 kts 217°
2026-04-14 10:55 8.50954 98.62867 9723 ft 264 kts 216°
2026-04-14 10:55 8.49439 98.61842 9627 ft 260 kts 208°
2026-04-14 10:56 8.47883 98.60910 9488 ft 261 kts 209°
2026-04-14 10:56 8.46325 98.59962 9326 ft 262 kts 209°
2026-04-14 10:56 8.44761 98.59008 9151 ft 263 kts 209°
2026-04-14 10:56 8.43194 98.58053 8976 ft 263 kts 209°
2026-04-14 10:57 8.41627 98.57099 8804 ft 262 kts 209°
2026-04-14 10:57 8.40065 98.56151 8630 ft 262 kts 209°
2026-04-14 10:57 8.38507 98.55204 8452 ft 261 kts 209°
2026-04-14 10:57 8.36948 98.54262 8280 ft 259 kts 207°
2026-04-14 10:58 8.35282 98.53758 8113 ft 253 kts 179°
2026-04-14 10:58 8.33539 98.53865 7917 ft 252 kts 172°
2026-04-14 10:58 8.31776 98.54035 7608 ft 257 kts 172°
2026-04-14 10:58 8.29998 98.54210 7226 ft 256 kts 172°
2026-04-14 10:59 8.28217 98.54382 6852 ft 257 kts 172°
2026-04-14 10:59 8.26436 98.54552 6481 ft 254 kts 172°
2026-04-14 10:59 8.24726 98.54712 6188 ft 241 kts 173°
2026-04-14 10:59 8.23087 98.54866 5802 ft 235 kts 173°
2026-04-14 11:00 8.21463 98.55020 5339 ft 234 kts 173°
2026-04-14 11:00 8.19842 98.55174 4888 ft 233 kts 172°
2026-04-14 11:00 8.18233 98.55325 4422 ft 231 kts 172°
2026-04-14 11:00 8.16641 98.55476 3960 ft 229 kts 173°
2026-04-14 11:01 8.15057 98.55518 3396 ft 228 kts 192°
2026-04-14 11:01 8.13728 98.54721 2939 ft 224 kts 233°
2026-04-14 11:01 8.13183 98.53340 2838 ft 204 kts 259°
2026-04-14 11:01 8.12934 98.51975 2737 ft 192 kts 260°
2026-04-14 11:02 8.12715 98.50708 2637 ft 179 kts 261°
2026-04-14 11:02 8.12523 98.49497 2525 ft 169 kts 262°
2026-04-14 11:02 8.12439 98.48357 2426 ft 162 kts 270°
2026-04-14 11:02 8.12515 98.47200 2354 ft 168 kts 277°
2026-04-14 11:03 8.12741 98.46021 2268 ft 174 kts 284°
2026-04-14 11:03 8.12977 98.44832 2121 ft 176 kts 263°
2026-04-14 11:03 8.12533 98.43680 2015 ft 178 kts 255°
2026-04-14 11:03 8.12241 98.42457 1987 ft 181 kts 258°
2026-04-14 11:04 8.12041 98.41258 1801 ft 159 kts 266°
2026-04-14 11:04 8.11981 98.40179 1552 ft 149 kts 266°
2026-04-14 11:04 8.11906 98.39140 1520 ft 158 kts 266°
2026-04-14 11:04 8.11821 98.37960 1030 ft 168 kts 266°
2026-04-14 11:05 8.11755 98.36895 869 ft 128 kts 266°
2026-04-14 11:05 8.11704 98.36097 682 ft 109 kts 267°
2026-04-14 11:05 8.11650 98.35313 588 ft 115 kts 267°
2026-04-14 11:05 8.11591 98.34570 474 ft 99 kts 267°
2026-04-14 11:06 8.11530 98.33906 288 ft 90 kts 266°
2026-04-14 11:06 8.11471 98.33257 175 ft 96 kts 266°
2026-04-14 11:06 8.11406 98.32591 79 ft 89 kts 266°
2026-04-14 11:06 8.11355 98.32040 56 ft 69 kts 263°
2026-04-14 11:07 8.11314 98.31599 37 ft 59 kts 264°
2026-04-14 11:07 8.11279 98.31214 28 ft 46 kts 264°
2026-04-14 11:07 8.11256 98.30970 25 ft 27 kts 272°
2026-04-14 11:07 8.11328 98.30917 25 ft 14 kts 353°
2026-04-14 11:08 8.11456 98.30902 27 ft 15 kts 353°
2026-04-14 11:08 8.11502 98.30896 25 ft 1 kts 345°
2026-04-14 11:08 8.11505 98.30895 25 ft 0 kts 346°